Theta_e
306 307 315 321 315 317 322 323 323 322 328 328 328 328 332 334 335 333 338 337 336 337 332 317 315 326 328 326 330 327 327 322 321 314 324 317 327 331 330 332 333 331 334 328 324 324 324 322 317
307 316 320 321 311 313 314 318 319 323 330 330 330 330 332 334 332 338 338 338 338 336 331 315 319 326 324 329 329 327 328 325 322 317 322 319 319 323 327 329 335 334 335 326 325 325 324 322 317
316 321 321 313 313 313 311 316 319 323 330 330 332 333 334 334 335 337 337 338 337 336 323 317 325 325 324 327 326 326 327 325 322 317 315 315 314 316 320 326 332 336 334 329 328 326 323 321 317
318 318 319 314 316 314 315 317 318 319 324 330 331 331 335 335 335 335 338 337 336 334 319 324 328 327 325 325 323 326 327 327 320 314 313 312 311 311 315 327 334 335 334 329 329 324 321 320 318
319 321 313 312 313 313 314 316 317 315 317 325 329 332 334 335 336 337 337 336 335 333 320 320 326 327 324 322 327 329 329 328 320 312 311 311 311 312 316 328 333 333 332 331 327 321 320 319 317
319 314 311 312 312 314 316 318 317 315 316 327 329 331 333 336 336 338 336 335 334 334 328 328 326 324 325 324 328 330 329 327 317 318 319 322 316 315 323 328 332 332 328 326 322 321 320 319 319
317 312 314 314 312 318 318 319 317 316 319 329 330 329 333 334 336 336 334 334 333 333 333 332 327 323 324 324 325 326 326 323 319 320 326 325 321 317 322 327 331 331 329 325 322 322 322 321 320
317 312 315 311 314 318 315 319 319 316 319 327 328 328 330 331 334 334 333 333 333 333 333 332 329 326 323 324 325 322 324 319 317 323 328 328 322 320 316 326 328 330 329 326 323 323 323 322 320
317 310 316 315 315 314 314 315 317 316 318 321 322 323 328 331 328 333 335 334 332 332 332 332 330 327 324 325 324 323 318 318 319 325 327 328 323 320 317 322 325 327 328 328 324 323 323 323 321
313 313 315 313 313 312 313 312 313 314 317 316 318 324 327 331 331 328 333 333 331 331 332 331 330 328 326 322 320 317 319 318 320 322 326 328 324 321 320 319 322 323 325 329 325 324 324 322 322
311 311 308 309 310 312 313 310 310 311 316 314 313 316 320 327 327 327 329 327 331 332 332 330 328 326 324 322 322 319 319 324 325 323 325 327 326 323 323 320 319 319 321 324 327 325 324 322 322
307 308 308 309 309 309 311 312 309 313 313 313 315 314 318 320 321 319 324 322 328 328 331 330 328 326 326 323 324 324 320 322 322 323 326 327 326 325 324 321 321 319 320 322 326 323 323 324 323
307 309 309 309 309 310 311 310 309 312 312 311 313 314 316 314 315 318 318 320 327 326 327 329 328 328 327 325 324 327 324 324 325 323 325 325 326 326 323 322 322 322 322 322 324 323 323 322 323
309 308 309 309 309 310 309 308 310 308 309 309 309 311 309 312 311 316 319 320 319 321 323 326 328 327 326 326 325 326 327 327 327 325 323 323 324 325 325 324 324 322 322 322 321 322 323 323 322
308 307 308 308 309 309 309 308 306 308 308 307 307 306 308 309 310 310 316 317 318 319 320 322 325 324 327 326 325 325 326 327 327 326 324 321 319 318 324 325 324 323 322 322 322 321 321 321 320
308 308 309 308 308 309 309 308 306 307 307 306 306 305 304 305 305 305 310 315 317 318 317 319 321 322 323 323 325 326 326 325 325 324 324 324 322 319 319 324 324 322 322 322 322 322 321 321 319
306 308 309 309 307 307 308 308 306 307 306 305 305 304 304 303 303 302 305 310 315 316 317 318 319 321 321 322 320 322 327 326 324 321 320 320 319 317 315 315 323 321 322 322 322 322 321 319 319
309 308 308 308 307 306 306 306 305 306 305 304 304 304 303 303 302 302 302 303 308 311 316 317 318 319 320 319 318 317 322 327 325 326 325 324 322 320 315 312 313 314 320 319 321 320 319 319 318
309 308 307 307 307 307 308 306 304 304 304 304 304 303 303 302 302 301 302 302 302 304 311 314 318 316 320 321 318 317 319 319 326 327 326 325 325 325 323 319 314 314 311 311 316 318 318 319 319
309 308 306 307 308 307 307 307 304 304 304 304 303 303 302 301 301 301 301 301 301 302 303 305 310 313 319 322 319 321 319 319 318 321 324 325 325 325 324 324 322 318 317 316 313 314 317 319 319
308 307 306 307 307 307 307 305 305 305 304 304 303 302 301 301 301 301 300 300 300 301 302 302 303 306 312 315 319 320 318 320 321 320 322 321 322 324 324 325 323 321 320 319 319 317 314 313 315
310 307 307 307 306 308 306 305 306 305 304 303 303 302 301 301 300 300 299 298 299 300 301 301 301 302 304 307 314 319 321 321 321 322 320 324 323 323 325 323 325 324 322 323 321 320 319 318 317
307 307 307 306 306 307 308 302 305 305 305 303 302 302 301 300 300 299 299 298 299 300 300 301 301 301 303 303 305 314 318 320 320 324 323 323 325 321 320 324 326 325 323 324 324 321 321 320 320
306 307 307 306 305 302 307 305 305 306 306 303 302 301 301 300 300 299 298 297 299 300 300 301 302 302 302 302 303 304 313 318 319 321 323 324 325 324 323 322 323 322 323 324 324 323 322 322 322
305 302 296 300 301 304 306 303 303 305 304 303 302 302 300 300 299 298 297 296 298 300 300 301 301 302 303 303 303 302 303 310 316 318 320 322 323 324 324 323 324 324 322 322 323 322 323 322 324
306 306 297 300 307 304 303 306 305 304 304 304 304 302 300 300 299 298 297 296 296 298 300 301 301 302 302 301 302 303 303 303 307 315 318 321 321 322 322 324 324 324 324 323 324 322 323 323 323
305 302 305 298 297 303 305 306 305 305 304 304 304 301 300 300 299 297 296 296 297 297 298 301 301 302 302 301 300 300 302 303 303 305 313 316 319 322 322 321 321 322 323 323 323 323 323 323 323
305 305 301 297 297 300 304 305 307 306 305 303 302 300 300 299 298 296 296 295 296 297 297 299 300 302 302 302 302 301 301 301 303 303 305 312 317 319 320 321 322 322 322 321 322 323 322 322 322
303 300 305 304 303 300 299 304 303 305 304 303 303 302 301 300 297 296 295 294 294 296 297 299 300 301 302 303 304 303 303 302 302 304 304 305 313 316 318 320 322 320 321 321 322 322 322 322 321
302 305 305 300 300 298 301 301 304 303 304 304 303 303 302 301 297 295 295 294 294 296 295 298 301 302 302 302 303 304 304 304 303 303 305 306 308 314 316 320 320 319 320 320 322 322 321 322 321
Wind_Speed
3 4 8 3 4 4 3 7 8 9 3 6 8 7 9 7 5 2 16 20 13 25 25 23 23 22 20 19 18 15 15 15 16 15 14 14 14 13 10 10 16 17 22 21 19 20 18 18 18
6 9 6 1 4 2 5 6 11 5 5 8 9 8 4 2 7 17 21 15 11 25 25 23 24 24 20 19 17 16 15 14 15 14 14 12 12 11 10 9 14 19 25 21 19 18 18 17 18
10 7 2 4 3 4 4 5 5 12 9 7 3 10 5 4 10 18 13 13 17 28 25 24 24 23 22 20 17 16 14 13 13 12 14 12 11 11 10 10 13 23 22 19 17 17 18 15 17
6 3 2 4 3 5 4 6 7 9 13 7 7 7 8 6 10 9 16 19 21 28 25 23 23 22 21 20 17 17 14 12 11 13 12 13 12 12 13 13 20 21 17 16 15 15 14 14 16
4 1 3 1 4 3 4 14 16 6 8 12 10 2 5 10 2 12 21 22 21 25 23 22 22 22 21 20 18 17 16 12 10 11 13 13 13 14 15 16 18 17 15 13 12 13 13 14 16
2 1 4 1 4 5 6 20 12 14 17 15 9 5 4 11 6 17 21 24 21 23 22 23 21 20 21 21 20 18 13 11 13 15 16 15 14 14 16 17 16 16 16 14 13 14 13 13 14
2 3 3 3 2 6 7 17 10 8 15 13 13 3 5 7 11 15 17 23 23 23 23 23 22 20 19 20 19 17 15 15 15 17 16 15 13 13 16 16 15 16 12 12 15 14 14 13 13
3 3 3 7 3 3 14 12 20 21 6 4 14 9 7 5 8 12 19 20 22 23 24 24 22 22 22 21 20 18 15 17 17 19 13 14 12 11 14 17 14 13 11 13 14 16 14 8 12
5 4 4 5 7 5 17 10 15 11 14 18 15 19 17 6 8 15 20 22 21 21 24 23 22 21 21 19 18 17 17 19 19 18 14 15 12 11 12 16 14 13 10 11 13 14 14 10 8
8 4 6 5 4 3 14 16 7 9 19 15 23 17 13 5 6 7 14 17 16 20 22 23 21 21 19 18 20 18 19 21 19 16 16 16 14 12 11 13 12 12 11 9 12 13 12 12 6
5 3 5 11 11 10 8 19 12 6 7 9 13 19 18 10 7 6 6 9 15 20 19 18 17 18 16 21 19 17 20 19 17 17 16 17 16 15 13 9 10 10 11 12 11 9 9 11 8
6 7 8 8 9 6 8 4 16 19 5 8 11 13 14 15 12 15 5 13 7 8 24 23 17 16 13 18 19 16 18 17 17 18 17 15 18 15 13 10 9 8 10 11 13 10 9 10 6
6 5 8 10 7 7 11 13 11 14 11 11 11 13 15 17 13 13 13 14 4 3 8 22 25 21 16 17 18 18 19 18 19 19 16 15 14 14 15 14 7 8 9 6 13 12 11 8 6
3 4 7 11 10 7 7 9 3 10 5 11 14 16 17 16 18 12 16 21 20 13 9 10 22 25 22 19 18 18 19 20 19 20 18 17 17 14 14 13 14 9 9 7 8 9 9 7 7
1 4 1 11 14 3 4 6 6 15 8 13 14 15 14 16 17 20 14 16 18 25 22 10 4 6 17 24 21 18 19 21 20 20 20 17 16 15 18 16 15 12 14 12 11 12 11 12 11
2 3 4 4 11 6 4 1 7 15 10 13 14 16 17 16 19 18 15 12 16 14 20 20 11 9 7 10 24 26 24 24 23 21 21 20 16 14 18 19 17 14 14 16 16 16 15 14 13
7 3 6 1 10 6 5 3 5 13 13 14 15 15 17 18 19 20 17 14 12 12 12 13 17 13 12 13 8 11 24 26 22 21 18 17 15 15 15 17 22 19 16 18 18 16 15 14 14
5 4 6 4 7 7 5 4 4 11 12 12 14 14 16 18 20 18 17 15 10 6 7 6 2 8 13 3 12 15 11 14 29 18 15 13 12 12 13 14 18 20 18 17 19 17 16 14 13
2 4 6 5 4 5 1 4 5 8 10 11 12 13 14 13 15 16 17 13 10 9 2 5 2 8 6 9 5 5 9 9 9 15 16 15 12 12 13 12 13 17 14 13 17 17 16 15 14
1 4 5 7 5 4 4 2 4 7 5 8 9 12 13 14 15 16 19 17 15 12 8 1 5 6 9 10 13 12 10 8 1 5 8 13 16 17 12 15 15 14 13 14 15 19 19 17 16
5 3 4 5 8 3 3 4 4 3 10 10 9 9 11 14 16 18 21 20 19 17 12 8 5 6 8 8 11 16 15 13 6 7 10 7 10 14 17 19 19 18 16 18 16 16 15 17 16
1 2 4 6 5 2 3 3 4 4 5 6 7 8 11 13 14 17 20 21 23 21 17 12 8 9 9 8 9 11 12 17 14 16 15 16 13 15 19 16 23 23 21 21 21 20 19 17 18
4 6 5 2 4 3 5 4 5 5 3 2 4 6 9 10 14 16 19 20 22 21 18 14 11 10 10 10 10 11 15 13 23 17 18 18 19 19 14 18 23 23 24 24 23 24 22 22 20
8 3 2 1 1 3 4 4 3 3 3 2 3 5 6 9 13 14 16 19 21 20 17 16 13 11 10 10 11 13 14 17 17 17 17 21 19 20 17 15 19 20 20 27 29 27 25 24 24
7 5 3 5 5 3 3 3 6 3 2 2 0 3 3 9 14 15 18 20 20 21 19 18 15 13 12 10 9 11 14 16 17 20 16 18 16 16 17 16 21 21 18 19 19 24 23 26 30
4 3 3 3 3 4 6 3 4 2 4 3 3 1 1 8 11 14 18 19 18 18 19 19 16 14 14 13 10 8 12 15 17 19 20 17 19 18 10 18 17 15 19 17 22 22 22 22 25
6 5 3 4 2 1 4 4 2 1 5 8 5 3 3 8 11 12 15 18 19 17 17 17 16 14 13 12 11 9 9 12 16 17 20 18 19 17 12 16 15 12 12 10 12 18 18 19 22
3 2 4 3 3 4 5 5 4 3 0 3 2 1 2 7 10 11 14 16 16 18 16 13 13 14 13 11 10 9 8 9 11 14 16 17 18 18 18 10 10 6 8 11 11 12 13 12 14
3 3 1 2 2 3 2 6 5 5 3 3 3 4 8 9 10 11 12 14 15 15 15 15 13 12 10 10 11 11 9 7 7 8 11 12 15 17 16 16 14 8 9 9 12 10 11 12 10
2 2 2 3 4 1 3 6 2 5 4 3 5 6 8 9 10 10 12 13 14 13 13 13 14 14 14 12 11 10 8 6 4 2 3 7 8 13 13 12 13 10 9 8 11 12 11 11 7
Wind_Direction
320 174 149 140 81 67 233 258 240 307 30 40 45 45 115 52 82 184 148 167 173 168 168 167 167 164 166 159 157 153 151 146 148 146 144 146 142 132 118 124 150 144 142 129 118 109 101 95 92
111 128 128 348 85 91 260 248 272 291 118 62 33 60 48 50 98 136 157 191 184 173 167 162 160 164 167 163 157 153 151 148 145 149 153 152 149 147 130 120 146 145 144 129 118 109 100 94 94
124 115 120 123 147 177 231 326 9 2 68 57 59 58 64 21 135 150 176 175 174 168 164 161 160 164 167 164 161 159 161 158 159 159 163 166 160 154 141 127 141 147 140 129 120 110 102 96 99
108 147 241 95 249 262 325 308 4 14 11 11 38 63 82 64 150 180 168 172 161 166 163 160 159 161 166 164 163 162 165 161 160 159 168 168 168 163 150 133 143 143 139 128 118 108 105 106 108
96 166 58 72 259 290 19 26 31 8 16 352 31 90 69 60 86 162 167 160 167 168 164 163 162 164 166 166 165 164 166 170 167 162 156 150 153 157 148 144 150 154 143 134 127 116 111 111 114
32 61 70 195 281 37 17 10 28 12 5 11 27 93 83 127 151 167 170 169 170 162 167 163 167 169 168 168 169 167 172 180 166 147 144 138 139 148 149 149 155 149 137 134 129 116 109 112 116
84 88 209 241 201 46 6 6 27 360 21 16 358 37 110 128 151 175 185 178 169 167 173 170 168 173 174 172 180 185 187 175 165 160 158 150 140 144 157 154 154 156 143 139 135 121 112 112 114
40 93 339 20 355 51 350 10 13 20 33 36 26 15 1 309 177 195 196 185 179 177 178 175 174 173 176 177 183 181 175 173 161 163 159 157 145 138 156 162 157 162 146 143 145 128 120 96 117
2 56 29 17 21 322 355 14 19 21 45 50 34 28 354 291 250 201 183 179 184 182 180 184 178 176 176 181 189 179 172 165 162 165 158 157 153 146 142 165 162 156 153 151 149 143 139 145 122
42 68 29 31 47 344 9 38 15 38 33 356 357 8 7 300 243 233 185 180 188 190 186 185 185 182 185 189 179 177 170 161 161 167 163 163 162 155 124 159 156 161 161 161 163 152 142 141 129
38 55 345 24 11 358 353 56 47 32 38 14 353 355 3 346 19 75 143 100 173 189 180 177 185 191 193 183 175 167 171 164 163 165 167 169 168 164 141 158 163 165 176 179 165 160 151 153 144
83 48 40 354 352 357 349 54 54 71 107 32 11 11 22 28 39 57 107 48 135 174 178 183 182 185 190 184 189 173 174 172 167 167 165 162 177 169 156 166 167 161 172 184 173 170 187 168 161
66 49 42 19 21 53 38 77 92 85 80 35 15 17 33 38 44 46 57 63 56 64 128 181 174 177 199 195 191 189 180 180 167 175 174 172 169 177 176 173 183 172 167 175 171 181 194 216 203
23 12 49 19 15 65 56 44 61 15 66 31 26 22 28 29 36 48 47 55 56 57 61 160 197 177 184 202 197 193 192 191 186 180 188 192 191 190 184 178 171 187 185 192 187 184 194 192 222
336 346 213 7 356 28 30 22 10 353 64 55 39 32 28 23 22 34 49 49 39 38 35 338 108 9 194 180 194 204 202 200 194 191 194 200 195 200 196 192 183 191 192 180 205 207 217 228 234
338 36 55 329 11 330 29 55 3 10 65 63 51 38 32 32 25 17 20 37 34 18 353 356 334 292 8 120 194 198 205 209 204 197 197 202 201 196 196 199 199 209 208 205 203 206 216 222 226
17 349 341 161 22 11 46 152 32 22 48 58 55 47 35 33 34 24 20 14 16 17 360 322 341 239 288 275 320 1 188 200 205 194 192 195 204 211 203 205 212 211 211 210 215 222 229 237 240
316 345 333 10 335 18 50 104 61 39 51 53 52 46 44 38 28 20 30 24 11 42 93 37 296 310 275 73 285 350 31 192 194 197 193 195 197 204 210 209 209 214 212 213 216 219 227 234 238
293 23 348 319 321 20 341 147 121 83 58 46 45 43 37 34 29 18 13 18 15 6 43 123 239 282 292 171 117 0 347 14 201 194 207 212 207 219 218 218 208 216 228 228 224 228 230 238 244
35 45 341 310 336 339 318 285 145 120 104 75 56 43 25 25 33 19 13 12 9 10 14 43 201 236 234 209 209 186 209 188 142 186 234 227 223 237 243 226 231 220 226 232 232 228 230 233 240
66 73 315 279 317 291 310 322 155 144 126 99 68 46 27 27 23 15 14 11 1 1 358 347 296 244 241 237 217 227 227 215 197 213 208 202 216 227 229 234 233 229 232 239 243 249 240 239 237
84 8 324 316 14 320 87 285 195 193 136 93 79 49 30 20 17 13 9 8 4 356 351 336 316 287 261 253 238 231 221 221 218 224 212 229 227 228 232 240 232 234 246 242 240 241 244 246 247
254 320 279 284 323 16 340 61 298 168 168 123 87 56 16 10 4 10 6 3 360 357 355 348 332 306 285 268 247 236 234 223 217 222 230 223 232 232 236 233 234 241 241 245 248 241 245 245 248
307 309 222 323 70 36 284 106 273 239 183 155 50 28 8 360 355 359 2 357 359 357 358 355 350 335 310 284 259 239 231 234 240 242 224 231 233 240 236 234 236 238 246 252 249 244 244 255 255
9 37 353 8 15 229 317 32 246 202 176 160 175 352 7 347 349 352 356 356 356 356 357 358 357 349 334 306 270 250 235 227 232 240 234 224 219 236 244 254 242 247 246 247 243 250 257 250 260
336 64 132 189 322 289 321 253 277 176 180 230 247 353 41 355 348 347 350 353 355 354 356 353 353 358 350 334 313 266 243 233 229 229 238 228 229 227 230 237 256 261 246 255 252 247 252 250 258
319 40 279 97 52 14 257 274 291 262 275 265 226 148 45 350 342 344 346 351 354 357 0 2 359 357 351 347 337 314 272 247 236 231 231 237 238 232 227 253 251 255 252 249 248 256 259 262 257
85 242 28 360 40 335 304 299 244 286 14 30 46 160 336 331 335 340 345 349 352 354 358 6 10 4 3 1 354 344 325 289 258 242 234 232 232 229 238 247 226 220 244 256 248 251 243 270 254
28 1 358 127 130 152 295 274 218 196 195 296 302 293 309 325 333 340 344 350 353 354 357 2 13 19 17 8 2 353 342 328 304 252 234 226 222 222 230 239 229 238 248 258 262 224 215 227 231
98 227 137 128 278 234 156 275 259 185 190 245 275 271 285 308 323 335 344 352 360 6 6 12 16 18 19 19 17 13 9 359 347 330 225 213 218 218 218 223 233 235 250 241 244 225 229 233 235